TimePDT,TemperatureF,Dew PointF,Humidity,Sea Level PressureIn,VisibilityMPH,Wind Direction,Wind SpeedMPH,Gust SpeedMPH,PrecipitationIn,Events,Conditions,WindDirDegrees,DateUTC
12:15 AM,59.0,51.8,77,30.04,10.0,SE,8.1,-,N/A,,Overcast,140,2013-05-28 07:15:00
12:35 AM,59.0,53.6,82,30.04,10.0,SE,5.8,-,N/A,,Overcast,130,2013-05-28 07:35:00
12:55 AM,59.0,53.6,82,30.04,10.0,ESE,6.9,-,N/A,,Overcast,120,2013-05-28 07:55:00
1:15 AM,57.2,53.6,88,30.04,10.0,SE,5.8,-,N/A,,Overcast,130,2013-05-28 08:15:00
1:35 AM,57.2,53.6,88,30.03,10.0,SE,5.8,-,N/A,,Mostly Cloudy,130,2013-05-28 08:35:00
1:55 AM,57.2,53.6,88,30.02,10.0,ESE,6.9,-,N/A,,Overcast,120,2013-05-28 08:55:00
2:15 AM,57.2,53.6,88,30.01,10.0,SE,6.9,-,N/A,,Overcast,130,2013-05-28 09:15:00
2:35 AM,57.2,53.6,88,30.01,10.0,ESE,5.8,-,N/A,,Overcast,120,2013-05-28 09:35:00
2:55 AM,57.2,53.6,88,30.01,10.0,SE,4.6,-,N/A,,Overcast,140,2013-05-28 09:55:00
3:15 AM,57.2,55.4,94,30.01,10.0,South,8.1,-,N/A,,Overcast,170,2013-05-28 10:15:00
3:35 AM,57.2,55.4,94,30.00,10.0,South,8.1,-,N/A,,Overcast,180,2013-05-28 10:35:00
3:55 AM,57.2,55.4,94,30.01,10.0,SSE,5.8,-,N/A,,Overcast,160,2013-05-28 10:55:00
4:15 AM,57.2,55.4,94,30.00,10.0,SSE,5.8,-,N/A,,Overcast,160,2013-05-28 11:15:00
4:35 AM,57.2,55.4,94,30.00,10.0,SSE,5.8,-,N/A,,Overcast,150,2013-05-28 11:35:00
4:55 AM,57.2,53.6,88,30.00,10.0,South,4.6,-,N/A,,Overcast,190,2013-05-28 11:55:00
5:15 AM,57.2,53.6,88,29.99,10.0,Calm,Calm,-,N/A,,Overcast,0,2013-05-28 12:15:00
5:35 AM,57.2,53.6,88,29.99,10.0,South,3.5,-,N/A,,Overcast,180,2013-05-28 12:35:00
5:55 AM,57.2,53.6,88,29.99,10.0,South,3.5,-,N/A,,Overcast,180,2013-05-28 12:55:00
6:15 AM,57.2,55.4,94,29.99,10.0,South,3.5,-,N/A,,Overcast,190,2013-05-28 13:15:00
6:35 AM,57.2,55.4,94,30.00,10.0,Calm,Calm,-,N/A,,Overcast,0,2013-05-28 13:35:00
6:55 AM,57.2,55.4,94,30.00,10.0,Calm,Calm,-,N/A,,Overcast,0,2013-05-28 13:55:00
7:15 AM,57.2,55.4,94,30.00,10.0,Calm,Calm,-,N/A,,Overcast,0,2013-05-28 14:15:00
7:35 AM,57.2,55.4,94,30.00,10.0,Calm,Calm,-,N/A,,Overcast,0,2013-05-28 14:35:00
7:55 AM,59.0,55.4,88,30.01,10.0,Calm,Calm,-,N/A,,Overcast,0,2013-05-28 14:55:00
8:15 AM,59.0,53.6,82,30.01,10.0,Calm,Calm,-,N/A,,Overcast,0,2013-05-28 15:15:00
8:35 AM,59.0,55.4,88,30.01,10.0,SE,3.5,-,N/A,,Overcast,130,2013-05-28 15:35:00
8:55 AM,59.0,55.4,88,30.01,10.0,ESE,3.5,-,N/A,,Overcast,120,2013-05-28 15:55:00
9:15 AM,59.0,55.4,88,30.00,10.0,East,6.9,-,N/A,,Overcast,80,2013-05-28 16:15:00
9:35 AM,59.0,55.4,88,30.00,10.0,SE,4.6,-,N/A,,Overcast,130,2013-05-28 16:35:00
9:55 AM,62.6,55.4,77,30.00,10.0,Calm,Calm,-,N/A,,Overcast,0,2013-05-28 16:55:00
10:15 AM,62.6,55.4,77,29.99,10.0,NW,8.1,-,N/A,,Overcast,310,2013-05-28 17:15:00
10:35 AM,66.2,55.4,68,30.00,10.0,NW,9.2,17.3,N/A,,Overcast,310,2013-05-28 17:35:00
10:55 AM,68.0,53.6,60,30.00,10.0,NW,10.4,20.7,N/A,,Overcast,320,2013-05-28 17:55:00
11:15 AM,68.0,53.6,60,30.00,10.0,NW,15.0,24.2,N/A,,Scattered Clouds,320,2013-05-28 18:15:00
11:35 AM,69.8,53.6,56,30.00,10.0,NW,16.1,20.7,N/A,,Clear,310,2013-05-28 18:35:00
11:55 AM,68.0,53.6,60,29.99,10.0,West,11.5,17.3,N/A,,Partly Cloudy,280,2013-05-28 18:55:00
12:15 PM,69.8,53.6,56,29.99,10.0,WNW,12.7,23.0,N/A,,Partly Cloudy,300,2013-05-28 19:15:00
12:35 PM,71.6,53.6,53,29.99,10.0,NNW,13.8,25.3,N/A,,Clear,330,2013-05-28 19:35:00
12:55 PM,71.6,51.8,50,29.98,10.0,NW,17.3,24.2,N/A,,Clear,320,2013-05-28 19:55:00
1:15 PM,71.6,53.6,53,29.99,10.0,NW,15.0,24.2,N/A,,Clear,310,2013-05-28 20:15:00
1:35 PM,71.6,53.6,53,29.98,10.0,NNW,17.3,24.2,N/A,,Clear,330,2013-05-28 20:35:00
1:55 PM,73.4,51.8,47,29.97,10.0,NW,16.1,24.2,N/A,,Clear,320,2013-05-28 20:55:00
2:15 PM,73.4,53.6,50,29.97,10.0,NNW,17.3,24.2,N/A,,Clear,340,2013-05-28 21:15:00
2:35 PM,73.4,53.6,50,29.97,10.0,NNW,17.3,23.0,N/A,,Clear,340,2013-05-28 21:35:00
2:55 PM,73.4,50.0,44,29.96,10.0,North,15.0,23.0,N/A,,Clear,350,2013-05-28 21:55:00
3:15 PM,73.4,50.0,44,29.95,10.0,NNW,16.1,21.9,N/A,,Clear,340,2013-05-28 22:15:00
3:35 PM,73.4,51.8,47,29.95,10.0,NW,16.1,21.9,N/A,,Clear,320,2013-05-28 22:35:00
3:55 PM,73.4,50.0,44,29.95,10.0,North,19.6,26.5,N/A,,Clear,350,2013-05-28 22:55:00
4:15 PM,75.2,51.8,44,29.95,10.0,NW,13.8,21.9,N/A,,Clear,320,2013-05-28 23:15:00
4:35 PM,73.4,53.6,50,29.95,10.0,NW,15.0,29.9,N/A,,Clear,320,2013-05-28 23:35:00
4:55 PM,73.4,51.8,47,29.94,10.0,NNW,12.7,24.2,N/A,,Clear,330,2013-05-28 23:55:00
5:15 PM,71.6,51.8,50,29.94,10.0,NW,18.4,24.2,N/A,,Clear,320,2013-05-29 00:15:00
5:35 PM,71.6,50.0,46,29.94,10.0,NW,17.3,21.9,N/A,,Clear,320,2013-05-29 00:35:00
5:55 PM,69.8,50.0,49,29.93,10.0,NW,16.1,23.0,N/A,,Clear,310,2013-05-29 00:55:00
6:15 PM,69.8,48.2,46,29.93,10.0,NW,17.3,23.0,N/A,,Clear,310,2013-05-29 01:15:00
6:35 PM,68.0,48.2,49,29.93,10.0,NW,16.1,21.9,N/A,,Clear,320,2013-05-29 01:35:00
6:55 PM,68.0,48.2,49,29.92,10.0,WNW,13.8,20.7,N/A,,Clear,300,2013-05-29 01:55:00
7:15 PM,68.0,48.2,49,29.93,10.0,NW,10.4,17.3,N/A,,Clear,320,2013-05-29 02:15:00
7:35 PM,66.2,48.2,52,29.94,10.0,NW,13.8,20.7,N/A,,Clear,320,2013-05-29 02:35:00
7:55 PM,66.2,48.2,52,29.94,10.0,NW,17.3,23.0,N/A,,Clear,320,2013-05-29 02:55:00
8:15 PM,64.4,48.2,56,29.95,10.0,NNW,13.8,24.2,N/A,,Clear,330,2013-05-29 03:15:00
8:35 PM,62.6,48.2,59,29.97,10.0,NNW,17.3,25.3,N/A,,Clear,330,2013-05-29 03:35:00
8:55 PM,62.6,48.2,59,29.97,10.0,NNW,13.8,21.9,N/A,,Clear,330,2013-05-29 03:55:00
9:15 PM,60.8,48.2,63,29.98,10.0,NNW,6.9,-,N/A,,Clear,330,2013-05-29 04:15:00
9:35 PM,59.0,48.2,67,29.98,10.0,NW,10.4,17.3,N/A,,Clear,320,2013-05-29 04:35:00
9:55 PM,59.0,48.2,67,29.98,10.0,NW,8.1,-,N/A,,Clear,320,2013-05-29 04:55:00
10:15 PM,59.0,48.2,67,29.98,10.0,NW,11.5,-,N/A,,Clear,310,2013-05-29 05:15:00
10:35 PM,59.0,48.2,67,29.98,10.0,NNW,8.1,-,N/A,,Clear,330,2013-05-29 05:35:00
10:55 PM,59.0,48.2,67,29.98,10.0,NW,8.1,-,N/A,,Clear,320,2013-05-29 05:55:00
11:15 PM,57.2,48.2,72,29.97,10.0,NNW,5.8,-,N/A,,Clear,330,2013-05-29 06:15:00
11:35 PM,57.2,48.2,72,29.97,10.0,NW,4.6,-,N/A,,Clear,310,2013-05-29 06:35:00
11:55 PM,57.2,48.2,72,29.99,10.0,NW,4.6,-,N/A,,Clear,320,2013-05-29 06:55:00